Flag for Canada Weather past 2 weeks in Lethbridge, Alberta, Canada

Now
70 °F

Scattered clouds.


Feels Like: 70 °F
Forecast: 49 / 82 °F
Wind: 5 mph from Southeast

Location: Lethbridge

Current Time: Jul 7, 2015 at 9:02:19 PM

Latest Report: Jul 7, 2015 at 8:00 PM


Visibility: 15 mi

Pressure: 30.04 "Hg (27.15 "Hg at 872m altitude)

Humidity: 64%

Dew point: 57 °F

Location of LethbridgeLocation

Historic Weather in Lethbridge — Graph

°F

Lethbridge temperature yesterday

Maximum temperature yesterday: 75 °F (at 4:00 PM)
Minimum temperature yesterday: 43 °F (at 6:00 AM)
Average temperature yesterday: 60 °F

Past Weeks' High & Low Weather Summary

 TemperatureHumidityPressure
High90 °F (Jun 27, 5:00 PM)100% (Jun 24, 3:00 AM)30.26 "Hg (Jun 24, 3:00 AM)
Low43 °F (Jul 6, 6:00 AM)21% (Jul 3, 3:00 PM)29.72 "Hg (Jul 3, 9:00 PM)
Average67 °F66%30.02 "Hg
* Reported Jun 22 7:00 PM — Jul 7 7:00 PM, Lethbridge, Weather by CustomWeather, © 2015

Note: Actual official high and low records may vary slightly from our data, if they occured in-between our weather recording intervals... More about our weather records

Advertising

Lethbridge weather history for previous 24 hours

 ConditionsComfort  
Time TempWeatherWind HumidityBarometerVisibility
7:00 PM
Tue, Jul 7
72 °FPartly sunny.2 mph50%30.05 "Hg15 mi
6:00 PM72 °FBroken clouds.6 mph47%30.06 "Hg15 mi
5:00 PM73 °FScattered clouds.2 mph38%30.07 "Hg15 mi
4:00 PM72 °FScattered clouds.6 mph47%30.09 "Hg15 mi
3:00 PM70 °FScattered clouds.3 mph57%30.09 "Hg15 mi
2:00 PM66 °FPartly sunny.3 mph64%30.12 "Hg15 mi
1:00 PM64 °FPartly sunny.14 mph68%30.14 "Hg20 mi
12:00 PM64 °FPartly sunny.16 mph64%30.14 "Hg20 mi
11:00 AM64 °FBroken clouds.16 mph68%30.13 "Hg25 mi
10:00 AM63 °FPartly sunny.9 mph73%30.14 "Hg25 mi
9:00 AM59 °FPartly sunny.7 mph88%30.13 "Hg25 mi
8:00 AM57 °FPartly sunny.5 mph88%30.13 "Hg25 mi
7:00 AM55 °FPartly sunny.7 mph94%30.12 "Hg25 mi
6:00 AM54 °FPassing clouds.8 mph94%30.11 "Hg25 mi
5:00 AM55 °FOvercast.9 mph88%30.10 "Hg9 mi
4:04 AM57 °FLight rain. Overcast.13 mph82%30.09 "Hg3 mi
4:02 AM57 °FRain. Overcast.12 mph82%30.09 "Hg2 mi
3:00 AM57 °FThundershowers. Mostly cloudy.9 mph82%30.10 "Hg9 mi
2:00 AM59 °FPassing clouds.13 mph77%30.05 "Hg9 mi
1:00 AM57 °FPassing clouds.13 mph77%30.05 "Hg9 mi
12:00 AM57 °FClear.7 mph77%30.01 "Hg9 mi
11:00 PM
Mon, Jul 6
61 °FClear.14 mph68%30.01 "Hg9 mi
10:00 PM61 °FPartly sunny.8 mph77%30.01 "Hg30 mi
9:00 PM66 °FPartly sunny.7 mph73%30.01 "Hg30 mi
Weather by CustomWeather, © 2015

See weather overviewHow to use our weather pages